GFSFLT1_con_mlcape_069.txt.gz
CAPE
360 282 190 167 2 0 0 0 0 3 0 0 0 36 50 23 0 12 289 402 431 276 572 747 966 850 848 915 706 454 643 667 816
250 279 64 181 50 0 0 0 0 13 0 0 0 1 36 53 1 0 118 255 444 535 452 763 942 1013 894 913 864 643 665 737 662
305 291 78 102 112 11 22 15 11 40 41 3 0 0 21 37 40 0 4 103 277 618 688 649 826 1022 923 1003 1038 977 666 947 825
62 126 124 62 130 13 34 43 16 0 91 107 59 19 7 30 40 29 45 94 129 282 655 717 786 849 940 933 1063 1096 923 610 754
3 34 114 118 161 30 0 24 35 0 47 150 127 76 39 11 0 0 0 0 69 135 181 425 851 855 929 999 1042 1040 999 828 792
57 76 111 73 96 54 18 5 37 3 0 69 159 152 112 38 2 0 0 0 0 7 117 94 211 532 954 1119 1065 960 1020 913 860
15 33 67 18 2 0 1 13 48 17 30 22 39 185 241 152 76 13 11 0 0 0 2 34 78 292 738 986 942 1020 1054 1042 1000
2 2 0 0 0 0 0 8 0 0 1 78 106 46 157 227 227 141 3 4 0 0 0 0 6 120 450 998 1173 1127 1106 1061 1098
0 0 0 0 0 0 0 0 3 13 7 21 252 268 203 247 252 286 160 1 0 0 0 0 0 0 35 259 743 1078 1118 1106 1136
0 0 0 0 0 0 1 0 0 81 89 59 137 408 366 335 335 367 422 282 32 0 0 0 0 0 0 0 117 433 775 1010 1159
0 0 0 0 0 0 2 2 0 38 235 217 155 400 562 507 545 455 482 576 438 196 22 4 3 0 0 0 0 8 85 369 915
0 0 0 0 0 0 0 2 0 34 307 311 5 67 449 782 810 897 725 708 707 629 393 205 137 48 0 0 37 65 35 53 403
0 0 0 0 0 0 0 0 0 0 49 62 30 55 94 354 367 1307 1259 1156 1004 881 742 649 473 367 110 89 230 111 91 261 533
0 0 0 0 0 0 0 0 0 0 0 0 0 3 0 28 155 482 559 1002 1274 1219 1076 947 875 794 552 319 334 507 185 96 607
0 0 0 0 0 0 0 0 0 0 0 0 0 0 0 0 8 75 300 1199 1190 1306 1275 1159 1074 1034 978 792 511 378 493 373 332
0 0 0 0 0 0 0 0 0 0 0 0 0 0 0 0 0 0 101 729 1304 1272 1299 1325 1213 1154 1070 1035 958 791 399 281 312
0 0 0 0 0 0 0 0 0 0 0 0 0 2 0 0 0 1 36 562 1256 1339 1353 1393 1304 1269 1181 1031 1115 1241 1117 660 331
0 0 0 0 0 10 2 0 0 0 0 0 0 0 0 0 0 0 0 36 1116 1427 1446 1454 1442 1332 1263 1211 1146 1131 1315 1339 1061
0 0 0 0 0 4 0 0 0 0 0 0 0 0 0 0 0 0 0 4 280 1069 1214 1259 1223 1212 1270 1278 1283 1208 1099 1150 1230
15 10 1 24 25 0 0 0 0 0 0 0 0 0 0 0 0 0 0 0 28 745 1480 855 837 798 1033 1093 1395 1049 1105 1003 1029

GFSFLT1_con_mlcape_072.txt.gz
CAPE
120 121 189 149 7 0 0 0 0 0 0 0 0 0 0 2 58 42 44 78 77 98 181 487 511 789 731 794 598 502 444 481 571
53 207 171 144 12 0 0 0 0 0 0 0 0 0 0 0 47 39 50 140 273 247 327 385 630 667 750 715 811 733 418 648 710
20 249 296 191 147 0 0 0 0 0 0 0 0 0 0 0 0 0 0 13 263 325 475 476 526 624 725 836 794 879 802 632 721
43 38 308 226 162 7 1 0 0 0 28 37 0 0 17 34 13 0 0 0 27 275 334 519 666 741 848 817 689 728 729 781 646
24 65 92 189 76 27 0 0 0 0 0 0 13 12 3 0 0 0 34 0 0 77 226 281 501 722 870 903 873 852 1010 1076 904
2 0 36 66 80 50 5 0 0 0 0 0 4 0 8 13 0 0 6 0 0 0 71 163 260 425 778 961 988 940 1006 1085 1042
0 1 2 0 0 0 19 24 14 50 5 0 24 20 0 3 6 0 0 0 0 0 0 0 96 206 268 513 659 916 1064 1007 992
0 0 0 0 1 2 1 12 16 24 54 20 0 27 68 25 0 0 0 0 0 0 0 0 0 57 177 244 429 672 860 901 880
0 0 0 0 0 1 1 3 3 28 46 43 55 43 82 147 132 73 0 0 0 0 0 0 0 0 0 34 288 419 570 930 1001
0 0 0 0 0 0 0 2 4 1 32 91 66 187 142 98 163 186 152 60 0 0 0 0 0 0 0 0 25 94 205 379 790
0 0 0 0 0 0 0 0 0 0 46 270 163 159 305 259 197 241 265 246 125 20 0 0 0 0 0 0 0 0 0 13 243
0 0 0 0 0 0 0 0 0 0 2 5 23 52 154 367 364 335 337 370 413 318 100 4 0 0 0 0 17 0 0 0 10
0 0 0 0 0 0 0 0 0 0 0 0 0 0 0 2 154 508 601 499 495 484 480 392 200 116 49 22 64 1 0 0 32
0 0 0 0 0 0 0 0 0 0 0 0 0 0 0 0 6 85 439 849 847 621 631 621 700 606 454 250 138 213 10 0 67
0 0 0 0 0 0 0 0 0 0 0 0 0 0 0 0 0 0 56 140 268 792 1102 967 892 907 839 681 478 227 178 46 30
0 0 0 0 0 0 0 0 0 0 0 0 0 0 0 0 0 0 0 15 74 340 994 1227 1183 1142 1078 1049 927 711 258 154 84
0 0 0 0 0 0 0 0 0 0 0 0 0 0 0 0 0 0 0 0 1 106 955 1187 1297 1358 1285 1188 1110 1044 899 342 84
0 0 0 0 0 0 0 0 0 0 0 0 0 0 0 0 0 0 0 0 0 10 198 1032 1295 1338 1334 1318 1284 1205 1044 937 595
4 1 0 0 0 0 0 0 4 0 0 0 0 0 0 0 0 0 0 0 0 0 0 136 621 722 1191 1381 1239 1115 861 674 592
0 1 6 13 4 0 0 0 1 0 0 0 0 0 0 0 0 0 0 0 0 0 0 0 182 481 656 741 1268 984 834 686 414

GFSFLT1_con_mlcape_075.txt.gz
CAPE
12 280 373 247 56 48 45 40 84 76 121 147 221 244 292 446 580 537 480 640 645 847 878 1025 1292 1415 1498 1048 1262 1174 1107 1205 1218
59 255 131 345 293 68 75 72 102 120 161 183 215 247 345 332 393 403 379 523 645 645 752 856 1063 1247 1411 1445 1392 1375 1251 1110 881
12 69 380 372 516 167 149 132 129 122 147 187 188 227 282 341 272 315 438 542 510 675 790 881 1081 1270 1405 1054 1354 1414 1398 1264 1244
6 159 327 579 487 232 169 129 111 120 123 151 158 199 236 224 185 173 357 456 473 764 918 1019 1167 1328 1307 1411 1388 1599 1542 1460 1587
6 1 98 388 500 238 189 123 100 90 122 160 150 155 177 148 214 220 214 220 290 413 660 991 1075 1285 1500 1544 1592 1647 1503 1379 1432
4 6 6 6 46 95 283 168 101 74 59 102 179 188 98 26 51 178 265 331 284 282 303 714 949 1089 1178 1511 1655 1674 1666 1676 1375
2 2 3 2 1 5 10 51 196 248 155 97 159 179 195 87 24 25 130 425 489 439 276 250 604 869 1033 1184 1578 1776 1759 1778 1770
0 0 0 1 1 2 3 2 4 58 186 185 196 296 273 312 321 67 24 162 364 456 476 365 337 524 745 978 1137 1239 1479 1608 1765
0 0 0 0 0 0 0 3 4 3 5 89 155 164 415 454 511 500 398 304 286 312 343 428 389 317 352 504 718 564 526 1028 1452
0 0 0 0 0 0 0 0 0 0 2 107 333 258 260 384 523 630 567 489 424 369 315 346 370 335 388 334 387 344 278 331 786
0 0 0 0 0 0 0 0 0 0 0 3 122 548 465 589 559 549 678 686 605 524 453 396 383 407 401 372 382 135 16 33 360
0 0 0 0 0 0 0 0 0 0 0 0 1 5 35 139 489 837 710 744 777 770 617 493 415 416 435 457 425 133 3 0 116
0 0 0 0 0 0 0 0 0 0 0 0 0 1 3 6 21 249 830 932 901 922 978 742 661 527 476 424 475 349 50 0 121
0 0 0 0 0 0 0 0 0 0 1 0 0 0 0 0 6 3 63 619 1131 1038 1057 1099 1115 1059 881 736 642 564 179 2 103
0 0 0 0 0 0 0 0 0 0 0 4 0 0 0 0 0 4 2 29 71 354 956 1057 1154 1277 1392 1373 1194 718 383 86 4
0 0 0 0 0 0 0 0 0 0 0 5 1 0 0 0 0 0 2 0 4 141 236 596 1093 1492 1278 1301 1390 1416 712 196 101
0 0 0 0 0 0 0 0 0 0 2 14 0 0 0 0 0 0 0 0 1 0 15 264 458 899 1569 1568 1405 1509 1559 960 166
6 6 4 3 5 4 1 0 0 0 0 16 1 0 0 0 0 0 0 0 0 0 0 2 261 729 1248 1530 1641 1659 1588 1560 1526
1 4 2 9 19 14 6 8 12 3 5 6 0 0 1 0 0 0 0 0 0 0 0 0 0 0 0 259 1077 1222 1211 1004 784
7 8 2 0 0 1 10 1 2 1 2 0 0 0 0 0 0 0 0 0 0 0 0 0 0 0 0 0 132 792 568 643 443

GFSFLT1_con_mlcape_078.txt.gz
CAPE
4 528 885 601 438 403 344 304 316 396 509 882 995 951 1008 1256 1343 1003 809 780 499 635 806 998 1272 1907 1182 1263 1362 1579 1975 1011 795
207 332 795 789 579 453 421 422 418 452 572 880 978 913 1001 1126 1346 1234 570 452 739 762 892 871 1378 1703 1588 1237 1284 1280 1723 1121 1333
117 423 677 849 880 572 466 487 517 597 662 816 1038 938 900 1014 1102 1248 1130 861 785 834 658 1146 1006 1783 1806 1422 1670 1743 1813 1303 1282
9 102 534 680 666 824 586 534 558 602 728 789 1000 1016 875 888 917 1021 1143 929 835 1065 914 1046 1522 1848 1741 1589 1639 1711 2157 1789 1477
6 6 6 34 152 735 798 673 718 673 648 654 782 859 918 951 1066 969 788 963 850 986 1090 1102 1577 1879 1710 1144 1427 1681 2097 1864 1328
4 4 4 5 5 5 26 217 745 694 662 632 588 613 618 667 770 873 781 759 983 948 1068 1056 989 1521 1917 1604 1319 1798 1938 2127 2011
0 0 1 2 3 3 3 5 51 199 638 599 517 588 691 575 652 745 661 686 914 1018 1109 1150 967 1054 1470 1811 1467 1493 1896 2206 2274
0 0 0 0 0 0 1 2 3 4 4 164 769 659 689 732 853 792 694 538 718 948 1143 1189 1194 964 1040 1397 1540 1607 1860 2181 2133
0 0 0 0 0 0 0 0 0 0 2 6 238 702 767 910 842 927 1041 849 486 903 1072 1250 1256 1225 971 808 565 523 885 1271 1906
0 0 0 0 0 0 0 0 0 0 0 2 2 435 948 704 785 1068 1063 1152 1127 1038 976 1091 1216 1221 1169 1107 977 301 101 455 836
0 0 0 0 0 0 0 0 0 0 0 0 0 0 0 14 589 897 958 1004 1105 1204 1194 1132 1126 1165 1265 1241 1271 791 382 94 434
0 0 0 0 0 0 0 0 0 0 0 0 0 0 0 1 2 32 601 1079 978 1059 1192 1177 1189 1160 1218 1347 1390 969 521 262 508
0 0 0 0 0 0 0 0 0 0 0 0 0 0 0 0 3 2 1 134 773 952 1133 1173 1332 1216 1228 1245 1319 1294 754 270 514
0 0 0 0 0 0 0 0 0 0 0 0 0 0 0 0 0 0 2 1 8 487 1161 1245 1219 1307 1369 1442 1390 1317 731 357 563
0 0 0 0 0 0 0 0 0 0 0 0 0 0 0 0 0 0 0 6 1 4 191 674 1151 1286 1342 1652 1829 1535 1144 499 223
0 0 0 0 0 0 0 0 0 0 0 0 0 0 0 0 0 0 0 0 0 1 10 337 620 661 868 1334 1578 1923 1463 923 456
0 0 0 0 1 0 0 0 0 0 0 0 0 0 0 0 0 0 0 0 0 0 0 0 39 270 639 738 1085 1360 1695 1316 599
1 4 2 3 9 8 0 0 1 7 13 9 0 0 0 0 0 0 0 0 0 0 0 0 0 3 0 40 481 1096 252 314 1427
1 6 2 6 7 13 10 6 6 5 2 0 10 18 0 0 0 0 0 0 0 0 0 0 0 0 0 0 0 0 0 0 92
1 1 8 11 14 4 6 6 12 8 10 6 0 0 12 3 0 0 0 0 0 0 0 0 0 0 0 0 0 0 0 0 0

GFSFLT1_con_mlcape_081.txt.gz
CAPE
298 588 380 330 444 409 210 93 180 360 705 1246 1236 1255 1387 1599 1513 1133 683 1029 773 659 699 854 2245 1662 1364 1387 1393 1493 1596 1427 1371
559 97 846 616 517 354 267 196 148 372 686 1194 1450 1338 1468 1641 1782 1582 736 687 909 709 1065 872 1481 1071 1318 1344 1351 1452 1523 1455 1776
236 893 644 479 531 529 416 473 270 382 680 1038 1468 1521 1441 1496 1554 1769 1510 953 850 727 901 1104 849 1219 1572 1664 1313 1441 1506 1459 1526
7 12 61 182 218 549 476 680 664 592 729 929 1317 1498 1431 1397 1439 1519 1702 1403 1165 983 1106 1179 1246 1688 1624 1774 1835 1699 1684 1489 1701
5 4 5 5 5 47 175 403 543 599 703 896 1145 1346 1579 1465 1478 1529 1380 1564 1367 1240 1226 1225 1086 1469 1818 1893 1545 1760 1874 1743 1066
3 3 1 0 2 0 4 12 283 336 332 724 934 1164 1365 1539 1435 1397 1371 1330 1456 1382 1377 1441 1049 1334 1674 1866 1362 1800 1863 1857 1775
0 0 0 0 0 1 4 3 5 11 127 345 523 946 1126 1204 1335 1309 1368 1393 1460 1403 1548 1557 1470 1208 1486 1870 1545 1287 1663 1946 1672
0 0 0 0 0 0 0 0 0 0 3 15 235 972 1090 1344 1307 1156 1249 1396 1414 1389 1530 1631 1699 1658 1297 1524 1565 1441 1410 1685 1744
0 0 0 0 0 0 0 0 0 0 0 2 6 67 375 535 918 1089 1569 1432 1369 1341 1364 1755 1955 1806 1721 1370 1043 516 744 1582 1896
0 0 0 0 0 0 0 0 0 0 0 0 0 0 0 8 192 711 940 1363 1644 1581 1410 1514 1827 1904 1877 1845 1751 946 262 410 1009
0 0 0 0 0 0 0 0 0 0 0 0 0 0 0 0 0 31 260 822 1132 1211 1647 1635 1571 1804 2001 2092 2076 1480 858 287 510
0 0 0 0 0 0 0 0 0 0 0 0 1 0 0 0 0 1 3 35 154 919 1225 1150 1317 1547 1697 1577 2104 1692 1154 815 819
0 0 0 0 0 0 0 0 0 0 0 0 0 0 0 0 0 0 0 0 3 39 616 1295 1479 1398 1234 1361 1653 1922 1518 1005 1182
0 0 0 0 0 0 0 0 0 0 0 0 0 0 0 0 0 0 0 0 1 0 4 292 1135 1520 1499 1479 1513 1616 1321 1022 1425
0 0 0 0 0 0 0 0 0 0 0 0 0 0 0 0 0 0 0 0 0 1 0 9 306 856 1059 1457 1396 1421 1524 999 776
0 0 0 0 0 0 0 0 0 0 0 0 0 0 0 0 0 0 0 0 0 0 0 0 0 197 337 798 900 1379 1215 863 615
0 0 0 0 1 1 1 2 1 0 0 0 0 0 0 0 0 0 0 0 0 0 0 0 0 0 1 0 29 756 1166 68 0
0 0 0 1 1 1 3 3 1 1 6 5 4 0 0 0 0 0 0 0 0 0 0 0 0 0 0 0 0 0 0 0 0
1 1 1 1 2 2 2 2 3 4 4 4 6 8 0 0 0 0 0 0 0 0 0 0 0 0 0 0 0 0 0 0 0
0 0 0 1 3 1 2 2 2 1 4 2 3 5 7 2 0 0 0 0 0 0 0 0 0 0 0 0 0 0 0 0 0

GFSFLT1_con_mlcape_084.txt.gz
CAPE
10 33 41 195 349 317 314 6 66 460 1103 1241 1047 1078 1105 1128 970 1175 899 1166 1172 178 395 605 1413 1343 1727 1688 1434 1610 1595 1871 1278
480 675 524 309 438 351 376 131 141 329 909 1318 1596 1459 1575 1876 1787 1444 368 346 821 710 1112 502 1101 934 1478 1337 1540 1448 1525 1304 1527
3 37 325 317 176 136 577 224 233 656 988 1301 1522 1517 1762 1908 2049 1789 1569 1680 963 1351 1526 573 516 604 978 1372 1600 1544 1527 1643 1204
3 3 21 119 58 1 299 401 226 496 1320 1372 1707 1755 1771 1675 1833 2022 2015 1667 1493 930 1169 1167 425 0 370 1350 1449 1461 1500 1109 1166
6 2 0 3 5 31 8 11 345 327 337 1031 1424 1697 1787 1803 1912 1685 1893 1853 1767 1597 1228 1254 1210 1372 1519 1599 1495 1526 1459 1491 1175
3 0 3 3 4 0 45 0 0 6 217 303 642 1558 1806 1862 1711 1770 1772 1926 1825 1946 1799 1584 1562 1162 1513 1750 1800 1630 1576 1398 1416
0 1 1 2 5 3 7 4 0 4 10 0 165 685 187 1859 1738 1750 1607 1864 2037 1887 2015 1879 1859 1685 1786 1755 1847 1916 1752 1893 1696
0 0 0 0 0 0 1 0 0 0 2 0 5 149 344 485 778 1571 1616 1601 1519 1787 1960 2029 2094 2054 1739 1923 2154 1803 1538 1683 1957
0 0 0 0 0 0 0 0 0 0 1 0 0 0 24 102 356 569 871 1032 1222 1453 1594 1902 2072 2063 2176 1916 1470 1181 1071 1205 1207
0 0 0 0 0 0 0 0 0 0 0 0 0 0 0 0 7 102 183 537 1078 1173 1199 1290 1636 1959 2136 2120 2180 1544 932 448 1330
0 0 0 0 0 0 0 0 0 0 0 0 0 0 0 0 0 0 0 88 159 349 730 1172 1289 1477 1857 2016 2260 2097 1791 1118 831
0 0 0 0 0 0 0 0 0 0 0 0 0 0 0 0 0 0 0 0 0 1 67 435 1059 1353 1433 1660 1977 2019 1495 1493 1308
0 0 0 0 0 0 0 0 0 0 0 0 0 0 0 0 0 0 0 0 0 0 0 0 168 658 1354 1530 1350 1814 1584 1142 1662
0 0 0 0 0 0 0 0 0 0 0 0 0 0 0 0 0 0 0 0 0 0 0 0 5 145 678 1191 1469 1766 1325 1152 1326
0 0 0 0 0 0 0 0 0 0 0 0 0 0 0 0 0 0 0 0 0 0 0 0 0 5 115 980 974 864 706 323 198
0 0 0 0 0 0 0 0 0 0 0 0 0 0 0 1 0 0 0 0 0 0 0 0 3 8 28 30 32 15 43 0 0
0 0 0 0 0 0 0 0 0 0 0 0 0 0 0 0 0 0 0 0 0 0 0 0 0 0 0 0 0 0 0 0 0
0 0 1 0 0 0 1 0 0 0 0 0 0 0 0 0 0 0 0 0 0 0 0 0 0 0 0 0 0 0 0 0 0
0 1 1 2 4 5 3 1 1 0 0 0 0 1 0 0 0 0 0 0 0 0 0 0 0 0 0 0 0 0 0 0 0
0 0 0 0 0 2 4 4 1 2 0 1 0 0 0 0 0 0 0 0 0 0 0 0 0 0 0 0 0 0 0 0 0

GFSFLT1_con_mlcape_087.txt.gz
CAPE
6 22 13 33 16 163 55 4 153 230 580 551 291 485 338 470 713 621 504 515 427 751 125 173 530 900 996 1356 912 1113 1385 1170 1092
2 0 1 0 5 81 250 12 191 285 477 565 501 848 247 600 998 848 593 832 811 442 354 800 985 837 960 1251 1342 996 1319 1167 1353
22 21 50 16 17 42 75 46 253 448 632 494 586 1101 774 721 773 810 1004 1075 1068 974 692 562 407 690 811 1124 1300 1256 1073 1014 1021
53 37 252 212 112 51 34 19 140 587 848 839 691 751 1014 954 1317 1230 1097 1137 1536 1217 809 491 449 345 482 872 1172 1227 1252 1122 971
6 3 14 86 54 142 90 18 30 91 75 523 968 1205 1429 1595 1748 1807 1661 1401 1346 1546 814 687 702 240 0 417 1011 1449 1336 967 1119
3 1 1 0 1 2 1 0 40 4 56 171 348 664 1295 1300 1793 1819 1858 1751 1485 1366 1378 1060 1049 813 819 1042 1133 1058 1510 1261 1073
2 1 3 3 2 1 0 0 6 0 13 45 77 221 307 545 654 832 1542 2005 1912 1767 1687 1557 1311 1298 1214 1341 1367 1463 1697 1471 1116
0 0 0 0 1 2 1 0 3 1 0 17 9 18 53 12 38 368 933 1146 1861 1746 1730 1845 1627 1452 1499 1746 1705 1406 1278 1545 1651
0 0 0 0 0 0 0 0 1 1 0 0 0 0 2 13 11 219 333 700 1078 1289 1279 1241 1760 1704 1736 1494 1522 1941 1660 1562 1361
0 0 0 0 0 0 0 0 0 0 0 0 0 0 0 0 2 26 120 157 294 468 647 1160 1240 1271 1440 1461 1717 1539 1110 827 848
0 0 0 0 0 0 0 0 0 0 0 0 0 0 0 0 0 0 0 2 20 85 148 395 790 991 1122 1314 1393 1374 1371 1264 739
0 0 0 0 0 0 0 0 0 0 0 0 0 0 0 0 0 0 0 0 0 0 0 6 117 363 675 931 1143 1240 1121 960 919
0 0 0 0 0 0 0 0 0 0 0 0 0 0 0 0 0 0 0 0 0 0 0 0 0 0 88 339 698 980 820 846 923
0 0 0 0 0 0 0 0 0 0 0 0 0 0 0 0 0 0 0 0 0 0 0 0 0 0 0 12 600 204 109 232 588
0 0 0 0 0 0 0 0 0 0 0 0 0 0 0 0 0 0 0 0 0 0 0 0 0 0 1 168 0 0 0 0 0
0 0 0 0 0 0 0 0 0 0 0 0 0 0 0 0 0 0 0 0 0 0 0 0 0 0 0 0 0 0 0 0 0
0 0 0 0 0 0 0 0 0 0 0 0 0 0 0 0 0 0 0 0 0 0 0 0 0 0 0 0 0 0 0 0 0
0 0 0 0 0 0 0 0 0 0 0 0 0 0 0 0 0 0 0 0 0 0 0 0 0 0 0 0 0 0 0 0 0
0 0 0 0 0 0 0 0 0 0 0 0 0 0 0 0 0 0 0 0 0 0 0 0 0 0 0 0 0 0 0 0 0
0 0 0 0 0 0 0 0 0 0 0 0 0 0 0 0 0 0 0 0 0 0 0 0 0 0 0 0 0 0 0 0 0

GFSFLT1_con_mlcape_090.txt.gz
CAPE
89 38 34 60 41 83 110 135 210 329 196 130 159 42 362 605 624 506 464 530 484 592 568 562 759 1100 1311 1085 829 650 753 966 983
126 60 20 40 19 44 113 100 201 296 324 217 163 80 270 520 602 476 472 510 307 551 645 38 579 609 1033 1070 1219 546 1213 1129 1067
56 35 2 6 0 19 23 97 91 280 454 253 213 238 199 457 382 713 457 505 842 724 622 399 885 798 831 845 1210 1138 926 1034 826
67 30 15 24 9 32 54 61 77 280 323 433 551 465 348 303 349 704 675 534 943 900 594 551 680 541 689 630 936 1265 1094 909 857
48 53 111 181 91 72 74 82 65 111 270 227 286 388 502 517 399 653 695 573 942 1315 945 637 439 372 287 487 745 990 1168 1100 1020
0 4 19 31 34 72 79 31 51 80 102 141 169 283 306 359 345 378 700 1050 1050 1224 1229 670 523 520 292 25 127 621 1266 1314 1029
1 2 1 1 1 1 5 4 59 37 113 106 71 100 87 129 358 465 626 838 1169 786 1101 1100 804 778 675 659 846 886 988 1145 1100
0 0 1 2 1 2 1 1 0 9 35 51 53 28 86 42 125 276 488 788 968 1387 1126 1099 1231 1204 1234 1215 1239 1218 1177 1274 1402
0 0 0 0 1 2 1 1 0 0 7 19 10 51 20 40 35 111 145 257 362 613 847 1112 1204 1335 1296 1150 1332 1403 1265 1330 1251
0 0 0 0 0 0 0 0 0 0 0 0 0 3 1 18 35 23 15 34 95 192 272 455 760 886 1056 1207 1297 1308 1163 1092 893
0 0 0 0 0 0 0 0 0 0 2 1 0 1 0 0 0 0 0 0 1 39 22 98 235 480 665 758 1053 1148 1058 1010 825
0 0 0 0 0 0 0 0 0 0 0 0 0 0 0 0 0 0 0 0 0 0 0 0 2 45 110 313 526 515 559 596 806
0 0 0 0 0 0 0 0 0 0 0 0 0 0 0 0 0 0 0 0 0 0 0 0 0 0 6 2 193 82 145 291 573
0 0 0 0 0 0 0 0 0 0 0 0 0 0 0 0 0 0 0 0 0 0 0 0 0 0 4 7 0 0 0 0 0
0 0 0 0 0 0 0 0 0 0 0 0 0 0 0 0 0 0 0 0 0 0 0 0 0 0 0 0 0 0 0 0 0
0 0 0 0 0 0 0 0 0 0 0 0 0 0 0 0 0 0 0 0 0 0 0 0 0 0 0 0 0 0 0 0 0
0 0 0 0 0 0 0 0 0 0 0 0 0 0 0 0 0 0 0 0 0 0 0 0 0 0 0 0 0 0 0 0 0
0 0 0 0 0 0 0 0 0 0 0 0 0 0 0 0 0 0 0 0 0 0 0 0 0 0 0 0 0 0 0 0 0
0 0 0 0 0 0 0 0 0 0 0 0 0 0 0 0 0 0 0 0 0 0 0 0 0 0 0 0 0 0 0 0 0
0 0 0 0 0 0 0 0 0 0 0 0 0 0 0 0 0 0 0 0 0 0 0 0 0 0 0 0 0 0 0 0 0

GFSFLT1_con_mlcape_093.txt.gz
CAPE
36 14 5 0 13 29 110 134 239 205 178 130 88 111 186 308 466 325 183 341 430 535 463 458 745 907 1022 926 888 543 134 805 915
62 24 4 11 67 35 98 147 270 218 165 78 69 74 171 364 493 482 408 398 420 473 590 519 467 747 960 741 819 857 705 830 943
41 14 8 32 58 70 113 99 166 406 272 179 127 111 117 247 503 519 450 430 499 409 419 622 317 251 602 838 1000 1064 577 808 988
51 26 7 4 44 52 26 64 126 243 434 410 299 269 249 144 384 478 540 479 457 698 712 591 517 726 691 820 754 952 1131 897 851
47 40 28 40 7 20 5 41 81 164 274 271 250 286 363 342 310 463 438 392 590 498 863 591 493 640 516 532 567 743 994 1131 1063
28 55 76 104 47 26 70 86 123 100 59 99 62 121 234 371 453 558 511 377 550 616 811 757 708 502 333 270 344 498 752 900 788
0 1 9 47 54 27 52 67 117 90 61 94 49 52 67 160 186 215 342 491 623 623 848 814 825 609 396 328 291 46 213 643 906
1 1 1 2 14 32 33 7 43 98 113 94 57 56 38 35 62 115 158 193 261 414 706 941 870 733 721 720 745 829 928 1015 1066
0 0 1 1 1 0 7 3 15 31 59 30 18 54 53 69 42 11 14 22 63 148 229 325 578 806 970 914 1199 1316 1267 1225 1165
0 1 1 1 1 1 0 1 1 0 0 0 1 0 5 5 3 8 8 1 0 5 16 51 148 327 521 718 818 916 930 1063 1089
0 0 0 0 0 0 2 2 1 0 0 0 0 1 3 3 3 0 1 0 0 0 2 0 6 78 118 240 377 395 534 601 557
0 0 0 0 0 0 0 0 0 0 0 0 0 0 0 0 0 0 0 0 0 0 0 0 0 0 23 63 118 82 192 480 540
0 0 0 0 0 0 0 0 0 0 0 0 0 0 0 0 0 0 0 0 0 0 0 0 0 0 77 45 0 0 0 0 0
0 0 0 0 0 0 0 0 0 0 0 0 0 0 0 0 0 0 0 0 0 0 0 0 6 0 0 0 0 0 0 0 0
0 0 0 0 0 0 0 0 0 0 0 0 0 0 0 0 0 0 0 0 0 0 0 0 0 0 0 0 0 0 0 0 0
0 0 0 0 0 0 0 0 0 0 0 0 0 0 0 0 0 0 0 0 0 0 0 0 0 0 0 0 0 0 0 0 0
0 0 0 0 0 0 0 0 0 0 0 0 0 0 0 0 0 0 0 0 0 0 0 0 0 0 0 0 0 0 0 0 0
0 0 0 0 0 0 0 0 0 0 0 0 0 0 0 0 0 0 0 0 0 0 0 0 0 0 0 0 0 0 0 0 0
0 0 0 0 0 0 0 0 0 0 0 0 0 0 0 0 0 0 0 0 0 0 0 0 0 0 0 0 0 0 0 0 0
0 0 0 0 0 0 0 0 0 0 0 0 0 0 0 0 0 0 0 0 0 0 0 0 0 0 0 0 0 0 0 0 0

GFSFLT1_con_mlcape_096.txt.gz
CAPE
32 9 2 93 123 97 116 105 120 79 32 0 0 59 110 128 132 196 251 282 309 384 422 426 421 602 902 797 716 459 257 450 871
38 4 11 49 74 60 89 70 159 118 99 26 13 72 183 166 189 205 209 216 306 362 427 383 376 607 762 791 773 786 558 433 734
39 11 0 30 33 0 12 44 130 147 152 121 94 86 124 153 318 318 324 301 322 329 241 403 398 317 330 675 698 777 725 549 799
68 20 14 9 40 33 27 44 106 262 203 125 137 122 56 86 207 388 402 362 350 471 500 478 342 327 326 459 589 794 903 807 764
14 17 14 20 52 57 34 4 106 159 206 124 160 183 150 154 135 201 391 356 320 464 504 366 282 339 509 543 555 603 730 851 877
40 17 26 1 47 63 58 40 24 97 98 65 37 91 180 281 314 329 313 369 401 410 509 478 380 291 411 320 249 334 496 623 733
33 72 48 85 13 36 68 56 49 62 41 13 1 39 71 80 167 174 207 272 332 382 436 563 570 475 559 501 335 220 159 248 545
2 3 33 128 112 56 42 91 113 120 109 84 47 45 6 19 19 4 11 20 91 135 247 405 652 736 619 514 360 388 479 437 651
8 16 1 6 25 26 31 46 82 85 76 74 60 44 12 4 18 9 0 12 0 0 0 21 112 298 498 662 694 809 820 938 1049
3 5 4 22 10 1 1 0 0 5 8 9 0 0 4 7 4 20 3 4 0 0 0 0 0 2 32 138 272 180 356 542 779
0 0 0 0 2 2 1 1 0 0 0 0 0 0 0 1 3 2 2 0 0 0 0 0 0 0 5 62 46 20 120 188 327
0 0 0 0 0 0 0 0 0 0 0 0 0 0 0 0 0 0 0 0 0 0 0 0 0 0 62 0 0 0 0 24 107
0 0 0 0 0 0 0 0 0 0 0 0 0 0 0 0 0 0 0 0 0 0 0 0 0 2 0 0 0 0 0 0 0
0 0 0 0 0 0 0 0 0 0 0 0 0 0 0 0 0 0 0 0 0 0 0 0 0 0 0 0 0 0 0 0 0
0 0 0 0 0 0 0 0 0 0 0 0 0 0 0 0 0 0 0 0 0 0 0 0 0 0 0 0 0 0 0 0 0
0 0 0 0 0 0 0 0 0 0 0 0 0 0 0 0 0 0 0 0 0 0 0 0 0 0 0 0 0 0 0 0 0
0 0 0 0 0 0 0 0 0 0 0 0 0 0 0 0 0 0 0 0 0 0 0 0 0 0 0 0 0 0 0 0 0
0 0 0 0 0 0 0 0 0 0 0 0 0 0 0 0 0 0 0 0 0 0 0 0 0 0 0 0 0 0 0 0 0
0 0 0 0 0 0 0 0 0 0 0 0 0 0 0 0 0 0 0 0 0 0 0 0 0 0 0 0 0 0 0 0 0
0 0 0 0 0 0 0 0 0 0 0 0 0 0 0 0 0 0 0 0 0 0 0 0 0 0 0 0 0 0 0 0 0

GFSFLT1_con_mlcape_099.txt.gz
CAPE
99 70 43 107 158 103 176 219 231 231 221 168 198 276 413 586 452 580 677 767 801 931 927 881 1067 1030 918 1300 1234 1053 917 1129 1526
98 88 45 42 171 207 270 151 200 261 271 227 177 180 347 465 274 439 500 566 669 824 923 1012 937 1146 1038 1058 1124 1356 1101 793 1244
119 78 53 99 63 113 110 155 146 242 318 219 204 177 350 384 475 417 602 664 707 766 809 862 924 874 934 1153 1147 1004 826 1280 1318
286 160 76 209 128 77 80 77 46 156 222 245 240 156 188 279 391 647 718 648 664 812 791 832 900 803 634 674 811 1039 1303 1167 1199
369 287 200 220 219 148 67 0 18 170 357 238 257 307 244 257 199 351 677 771 567 865 624 697 769 754 855 1011 964 1224 1342 1237 1267
292 252 207 226 276 258 132 36 24 68 155 241 156 212 317 156 161 318 526 726 909 894 566 487 980 806 718 846 755 654 868 806 927
325 288 280 234 233 241 232 115 76 119 81 50 43 79 135 182 215 329 629 691 619 818 846 624 1014 997 909 1006 750 644 639 678 953
269 247 261 289 287 280 298 269 194 129 67 43 21 4 0 37 141 209 320 354 365 398 642 798 1021 1070 1130 1100 928 687 702 797 787
220 262 191 186 226 186 147 211 187 140 88 65 30 46 48 41 26 60 116 159 172 190 246 334 403 453 533 584 832 177 344 577 1259
115 102 113 159 121 71 67 115 84 76 84 43 53 83 67 18 4 0 3 44 66 48 44 68 80 119 217 124 0 0 84 254 903
25 18 19 15 0 0 0 0 0 0 0 0 0 0 0 2 2 0 0 11 25 22 15 6 7 132 0 0 0 0 42 217 648
0 1 0 1 2 2 1 0 0 0 0 0 0 0 0 0 2 1 1 1 0 0 0 0 40 0 0 0 0 0 0 1 1
1 1 1 2 3 3 0 0 0 0 0 0 0 0 0 0 0 0 0 0 0 0 0 3 3 1 0 0 0 0 0 0 0
4 2 0 0 0 0 0 0 0 0 0 0 0 0 0 0 0 0 0 0 0 0 0 0 0 0 0 0 0 0 0 0 0
0 0 0 0 0 0 0 0 0 0 0 0 0 0 0 0 0 0 0 0 0 0 0 0 0 0 0 0 0 0 0 0 0
1 0 0 0 0 0 0 0 0 0 0 0 0 0 0 0 0 0 0 0 0 0 0 0 0 0 0 0 0 0 0 0 0
0 0 0 0 0 0 0 0 0 0 0 0 0 0 0 0 0 0 0 0 0 0 0 0 0 0 0 0 0 0 0 0 0
0 0 0 0 0 0 0 0 0 0 0 0 0 0 0 0 0 0 0 0 0 0 0 0 0 0 0 0 0 0 0 0 0
0 0 0 0 0 0 0 0 0 0 0 0 0 0 0 0 0 0 0 0 0 0 0 0 0 0 0 0 0 0 0 0 0
0 0 0 0 0 0 0 0 0 0 0 0 0 0 0 0 0 0 0 0 0 0 0 0 0 0 0 0 0 0 0 0 0

GFSFLT1_con_mlcape_102.txt.gz
CAPE
165 111 184 183 257 411 484 504 594 423 555 755 835 721 866 937 621 309 226 393 1028 544 874 771 1292 891 1083 1252 1058 1479 1693 1416 1041
242 134 149 192 310 471 482 488 618 499 505 699 735 608 805 619 404 420 596 699 596 851 706 1185 1106 1300 1092 1249 1192 1494 1544 1066 1467
306 195 51 173 282 444 362 395 657 594 610 759 612 520 589 542 508 481 267 486 338 682 783 1037 1417 1543 1450 1086 1114 1024 1263 1090 1169
441 322 229 151 209 448 569 613 522 342 729 802 685 514 375 402 542 417 568 526 396 748 561 787 1228 1283 1586 1323 1076 1231 1602 1493 1230
417 292 355 353 149 265 539 549 197 233 219 518 701 541 584 393 257 455 372 603 466 775 636 987 924 1019 1176 1172 925 1055 1472 1228 865
891 631 485 526 576 366 311 165 71 74 186 449 526 713 607 599 246 265 400 529 602 761 586 711 857 1092 1147 783 1183 782 1000 1115 1199
828 783 721 757 818 734 662 356 137 53 20 50 301 490 619 339 347 386 420 603 833 773 1020 569 583 774 1181 955 836 991 1012 1078 1165
676 606 600 643 630 659 682 570 381 176 30 12 30 88 95 327 632 696 794 726 945 969 981 651 931 888 1235 1274 1074 737 1443 1471 1401
587 646 603 691 673 700 701 584 475 291 185 131 86 6 7 31 42 191 483 729 914 967 1130 1307 1364 1448 1417 1297 1000 63 201 469 1336
646 552 579 700 852 759 749 777 624 516 268 122 74 13 3 6 44 43 135 221 416 576 676 804 823 873 884 185 25 0 32 156 1019
400 327 257 196 140 101 83 173 341 304 212 187 164 95 43 49 23 4 1 21 42 148 215 315 436 256 47 0 0 0 95 337 1179
186 60 22 3 4 2 1 0 2 4 1 1 1 0 2 4 1 0 0 0 14 44 106 199 281 45 0 0 0 0 0 227 198
3 5 2 3 5 6 2 2 1 0 1 0 0 0 0 0 0 10 13 17 0 0 70 45 0 0 0 0 0 0 0 0 10
4 5 5 5 2 3 4 0 0 0 0 0 0 0 0 0 0 0 1 0 3 3 0 0 0 0 0 0 0 0 0 0 0
3 2 1 0 0 0 0 0 0 0 0 0 0 0 0 0 0 0 0 3 5 1 0 0 0 0 0 0 0 0 0 0 0
1 0 0 0 0 0 0 0 0 0 0 0 0 0 0 0 0 0 0 0 0 0 0 0 0 0 0 0 0 0 0 0 0
0 0 0 0 0 0 0 0 0 0 0 0 0 0 0 0 0 0 0 0 0 0 0 0 0 0 0 0 0 0 0 0 0
1 0 0 0 0 0 0 0 0 0 0 0 0 0 0 0 0 0 0 0 0 0 0 0 0 0 0 0 0 0 0 0 0
0 0 0 0 0 0 0 0 0 0 0 0 0 0 0 0 0 0 0 0 0 0 0 0 0 0 0 0 0 0 0 0 0
3 0 0 0 0 0 0 0 0 0 0 0 0 0 0 0 0 0 0 0 0 0 0 0 0 0 0 0 0 0 0 0 0

GFSFLT1_con_mlcape_105.txt.gz
CAPE
0 52 191 104 168 240 246 255 252 240 655 810 867 825 847 843 865 555 333 512 771 797 828 656 1229 1200 1081 1118 1588 1471 1695 1389 967
115 132 13 132 162 276 145 281 316 370 663 810 792 818 899 936 775 656 577 203 945 1175 853 991 1501 974 1064 1132 1118 1355 1594 1261 1628
479 234 84 140 215 208 212 366 417 497 543 675 611 543 540 649 603 591 648 699 682 305 585 825 1167 1188 1333 1388 1390 1453 1501 1061 1214
481 302 211 115 271 224 326 513 489 547 489 788 643 591 451 393 316 291 368 261 394 596 666 791 1104 1320 1319 1166 1513 1483 1445 1735 1294
565 431 290 203 124 184 871 718 749 808 1270 785 573 657 688 589 585 396 281 296 373 734 899 1045 1084 1434 1252 971 1258 1329 1519 1732 901
735 771 368 206 141 216 882 1143 1226 917 1017 799 912 979 866 949 573 444 368 291 339 470 874 892 1041 1029 1014 1130 1206 1064 1354 1518 1056
916 688 534 745 572 360 599 585 599 724 489 257 265 241 743 867 943 517 569 598 355 533 894 858 818 968 1037 1160 1102 1237 1037 1211 1314
1525 1220 866 701 904 656 576 702 542 424 245 166 66 42 230 315 701 915 790 835 932 486 533 626 711 761 1040 962 952 565 913 1087 1326
1012 981 1069 1078 1117 989 921 1034 915 644 459 369 149 96 149 334 489 879 931 831 938 879 788 669 735 818 1025 1038 742 0 130 377 1344
774 1146 881 1014 816 885 950 1015 949 793 520 300 276 160 111 106 175 91 135 435 675 742 759 901 1040 958 1069 940 282 0 0 170 629
770 665 910 753 645 599 678 902 910 837 641 640 364 360 135 39 7 5 58 69 125 262 395 599 585 526 216 43 0 0 0 39 1013
642 393 146 70 24 16 6 68 460 703 579 487 424 340 278 204 148 58 15 11 25 47 125 218 177 116 58 0 0 0 0 0 893
141 5 7 7 7 8 3 3 4 13 17 26 17 28 29 16 9 0 0 0 0 0 8 17 27 0 0 0 0 0 0 0 253
4 6 7 6 4 6 6 2 1 4 2 3 2 0 0 0 0 0 1 1 12 2 1 0 0 0 0 0 0 0 0 0 0
7 7 5 2 1 1 0 0 0 1 1 0 0 0 0 0 0 0 0 8 1 1 2 0 0 0 0 0 0 0 0 0 0
5 4 0 0 0 0 0 0 0 0 0 0 0 0 0 0 0 1 11 6 4 1 0 0 0 0 0 0 0 0 0 0 0
3 0 0 0 0 0 0 0 0 0 0 0 0 0 0 0 0 0 4 8 0 1 7 7 6 2 0 0 0 0 0 0 0
3 0 0 0 0 0 0 0 0 0 0 0 0 0 0 0 0 0 0 0 0 0 0 0 0 0 0 0 0 0 0 0 0
0 0 0 0 0 0 0 0 0 0 0 0 0 0 0 0 0 0 0 0 0 0 0 0 0 0 0 0 0 0 0 0 0
0 0 0 0 0 0 0 0 0 0 0 0 0 0 0 0 0 0 0 0 0 0 0 0 0 0 0 0 0 0 0 0 0

GFSFLT1_con_mlcape_108.txt.gz
CAPE
3 1 9 90 94 123 194 147 78 605 929 531 607 782 905 873 820 874 739 532 400 41 0 253 983 1112 1163 1189 1593 1465 1461 1529 1122
4 1 0 60 86 109 80 389 241 230 885 991 985 993 709 745 958 762 710 356 20 35 11 251 788 1074 1057 1161 1043 1329 1492 1335 1262
76 1 0 116 85 23 29 261 87 73 696 661 900 894 836 692 782 728 953 212 214 32 45 284 157 471 1029 1111 1099 872 1150 1063 1093
127 3 1 178 132 169 28 44 78 234 882 812 778 783 865 943 537 689 479 575 484 125 82 604 152 716 1355 1230 1197 1277 1451 1197 881
243 75 143 125 81 369 116 227 418 135 698 757 714 272 619 626 366 296 421 308 498 357 902 1099 899 957 1228 1083 1194 1247 1371 1204 1115
834 722 570 245 200 167 62 35 0 278 333 497 692 700 693 576 458 664 282 211 114 396 773 907 971 1098 823 1013 1074 1082 1459 1292 1084
1009 780 655 434 249 178 63 0 0 131 116 565 407 196 450 141 504 496 397 430 556 561 690 733 866 807 759 944 819 1178 1141 1332 1118
1121 1047 694 566 355 301 250 108 81 638 575 471 559 533 574 460 487 648 646 614 561 432 805 741 608 794 769 968 502 110 269 1081 1083
1302 891 683 861 922 658 668 617 407 288 335 390 321 136 81 43 80 144 369 415 584 781 756 563 585 583 659 684 22 0 0 96 917
1373 1265 1131 1073 1067 956 950 878 943 624 806 693 494 291 123 146 165 73 170 215 468 636 405 384 579 737 890 371 0 0 0 0 263
949 1004 737 683 812 975 895 587 641 753 911 733 395 344 312 205 151 53 21 84 105 133 177 235 390 228 71 14 0 0 0 0 135
656 366 71 9 3 3 34 169 674 644 700 589 528 379 214 159 78 0 0 8 11 41 82 90 29 1 0 0 0 0 0 0 1169
90 0 2 3 6 2 0 2 74 193 290 347 274 284 223 186 139 25 2 0 0 0 32 7 0 0 0 0 0 0 0 0 269
4 4 6 4 5 5 5 3 1 0 2 1 2 0 19 35 25 4 0 0 8 0 0 0 0 0 0 0 0 0 0 0 0
5 5 4 3 2 3 3 2 0 3 3 1 0 0 0 0 0 0 0 0 0 0 0 0 0 0 0 0 0 0 0 0 0
4 3 4 1 0 0 0 0 0 0 0 0 0 0 0 0 2 0 0 0 0 0 0 0 0 0 0 0 0 0 0 0 0
2 0 0 0 0 0 0 0 0 0 0 0 0 0 0 0 0 0 0 0 0 0 0 0 0 0 0 0 0 0 0 0 0
0 0 0 0 0 0 0 0 0 0 0 0 0 0 0 0 0 0 0 0 0 0 0 0 0 0 0 0 0 0 0 0 0
0 0 0 0 0 0 0 0 0 0 0 0 0 0 0 0 0 0 0 0 0 0 0 0 0 0 0 0 0 0 0 0 0
0 0 0 0 0 0 0 0 0 0 0 0 0 0 0 0 0 0 0 0 0 0 0 0 0 0 0 0 0 0 0 0 0

GFSFLT1_con_mlcape_111.txt.gz
CAPE
3 34 41 24 42 40 80 99 286 461 453 261 128 279 393 315 460 396 267 139 10 23 0 133 288 598 841 782 1227 1021 1445 886 1329
0 3 37 57 46 53 68 69 426 654 476 326 331 547 785 481 554 393 258 222 196 61 0 14 359 496 670 822 1024 1003 1116 1125 853
0 0 5 16 61 61 85 113 426 913 571 379 267 745 712 544 567 593 274 93 2 0 0 0 71 424 570 922 730 477 971 840 674
0 0 0 1 39 94 163 186 260 544 812 653 535 902 575 527 682 562 375 227 155 49 0 63 142 76 468 950 728 866 976 902 533
33 11 0 0 19 81 48 87 198 429 402 257 814 495 731 616 394 420 539 509 266 2 0 157 82 9 656 770 792 1010 707 734 1031
208 52 0 37 177 53 83 105 127 155 247 463 614 442 903 599 557 451 413 305 436 305 305 615 666 756 615 774 912 837 836 1108 684
409 195 51 109 240 167 123 31 16 9 116 98 418 677 553 684 521 564 539 491 196 552 705 506 422 805 744 493 592 356 849 962 906
338 202 125 256 210 186 153 52 14 2 0 22 33 345 481 413 273 510 660 533 418 663 471 657 508 666 680 182 60 17 69 294 858
812 669 511 467 456 204 39 31 47 0 0 0 161 256 262 298 248 283 364 310 379 355 345 352 354 447 427 0 0 0 0 20 340
2 447 570 709 804 595 363 94 1 49 7 79 163 184 169 166 125 96 141 121 197 256 125 147 117 172 25 0 0 0 0 0 65
88 44 30 178 387 412 496 823 363 359 244 307 267 228 264 250 154 104 76 79 73 110 113 96 100 25 0 0 0 0 0 0 34
3 4 0 2 4 2 2 87 574 563 429 349 311 336 344 267 150 62 18 0 0 49 38 4 0 0 0 0 0 0 0 43 79
0 0 0 1 4 2 1 2 1 254 428 421 458 352 281 230 110 24 0 0 0 0 0 0 0 0 0 0 0 0 0 6 74
2 2 1 2 4 3 3 2 1 0 2 2 0 211 295 236 117 32 15 1 0 0 0 0 0 0 0 0 0 0 0 0 0
3 2 2 2 3 3 2 2 2 2 2 2 1 1 2 2 7 0 0 1 0 0 0 0 0 0 0 0 0 0 0 0 0
2 3 1 0 0 0 0 0 0 0 1 0 0 0 0 0 0 0 0 0 0 0 0 0 0 0 0 0 0 0 0 0 0
0 0 0 0 0 0 0 0 0 0 0 0 0 0 0 0 0 0 0 0 0 0 0 0 0 0 0 0 0 0 0 0 0
0 0 0 0 0 0 0 0 0 0 0 0 0 0 0 0 0 0 0 0 0 0 0 0 0 0 0 0 0 0 0 0 0
0 0 0 0 0 0 0 0 0 0 0 0 0 0 0 0 0 0 0 0 0 0 0 0 0 0 0 0 0 0 0 0 0
0 0 0 0 0 0 0 0 0 0 0 0 0 0 0 0 0 0 0 0 0 0 0 0 0 0 0 0 0 0 0 0 0

GFSFLT1_con_mlcape_114.txt.gz
CAPE
20 72 56 6 0 62 49 61 133 100 0 3 45 60 191 206 268 234 98 80 0 61 139 194 225 446 550 838 912 680 1168 804 1047
6 0 29 32 26 50 62 79 144 117 56 40 55 38 103 105 325 260 245 91 58 14 29 14 187 458 410 718 690 906 944 942 922
0 0 43 92 71 54 54 81 165 192 159 114 110 45 182 123 244 226 223 125 140 120 3 0 61 319 338 462 763 861 820 814 625
0 2 42 86 81 96 63 107 239 268 275 216 183 126 376 266 279 312 256 211 69 0 0 0 0 55 269 465 769 625 728 829 504
17 1 7 41 102 112 97 160 282 339 372 301 229 274 375 372 250 319 198 232 94 101 0 0 24 68 239 354 772 727 581 610 912
171 6 0 1 50 97 112 135 278 505 447 392 320 250 381 354 197 341 251 147 141 102 61 0 121 115 84 307 694 499 460 468 392
25 49 14 0 4 51 92 136 158 262 285 275 301 353 418 468 322 404 229 210 288 160 14 71 181 333 352 425 298 191 268 326 705
82 73 16 41 47 44 68 81 104 136 233 196 114 150 283 347 294 233 331 334 276 330 295 261 504 460 309 93 72 39 43 131 328
0 0 1 223 185 121 70 66 77 81 146 238 187 86 163 314 233 311 277 234 222 277 221 139 215 261 152 65 0 0 0 8 123
28 0 0 37 186 127 63 33 25 14 0 3 1 32 122 200 175 139 134 225 130 160 151 108 94 15 0 0 0 0 0 0 9
0 0 1 20 1 1 1 6 10 4 0 0 36 73 95 132 149 139 81 111 139 204 137 114 67 1 0 0 0 0 0 0 0
3 3 4 3 1 0 0 0 6 48 55 40 45 52 116 160 134 75 19 20 68 62 56 16 0 0 0 0 0 0 0 40 0
2 1 3 2 3 1 0 0 52 96 147 120 91 140 146 141 97 48 33 43 34 4 0 0 0 0 0 0 0 0 0 2 0
2 3 2 2 1 1 3 2 2 5 16 15 2 102 170 89 61 25 13 22 0 0 0 0 0 0 0 0 0 0 0 0 0
1 0 2 1 2 1 1 1 1 1 1 2 2 3 37 6 17 5 8 4 0 0 0 0 0 0 0 0 0 0 0 0 0
0 0 0 0 0 0 0 0 0 2 2 0 0 0 0 1 0 0 0 0 0 0 0 0 0 0 0 0 0 0 0 0 0
0 0 0 0 0 0 0 0 0 0 0 0 0 0 0 0 0 0 0 0 0 0 0 0 0 0 0 0 0 0 0 0 0
0 0 0 0 0 0 0 0 0 0 0 0 0 0 0 0 0 0 0 0 0 0 0 0 0 0 0 0 0 0 0 0 0
0 0 0 0 0 0 0 0 0 0 0 0 0 0 0 0 0 0 0 0 0 0 0 0 0 0 0 0 0 0 0 0 0
0 0 0 0 0 0 0 0 0 0 0 0 0 0 0 0 0 0 0 0 0 0 0 0 0 0 0 0 0 0 0 0 0

GFSFLT1_con_mlcape_117.txt.gz
CAPE
11 15 0 6 29 43 41 1 0 0 0 0 0 87 152 233 165 145 102 106 73 157 179 162 222 373 553 512 897 547 761 733 926
30 30 2 8 32 69 72 60 51 3 0 0 60 29 97 117 181 191 152 120 8 10 32 76 119 343 445 543 682 768 783 865 725
5 1 17 19 30 73 91 95 110 60 16 0 0 50 74 103 142 183 200 211 49 13 0 4 6 285 385 298 534 698 814 788 722
9 2 31 21 38 73 98 130 144 122 103 31 0 73 60 95 99 158 182 176 33 78 35 11 0 2 261 246 484 637 579 689 671
3 10 34 68 62 85 65 107 134 170 169 96 53 80 99 87 150 174 183 149 145 38 0 0 0 0 40 228 487 511 501 582 679
18 0 13 14 49 77 112 95 156 176 221 165 148 182 174 146 328 232 267 219 178 71 0 0 0 62 43 185 305 567 567 388 354
83 36 11 15 30 83 125 154 221 233 269 284 244 252 274 207 276 345 290 238 190 176 0 51 0 27 159 139 271 286 306 348 410
131 123 61 47 16 70 146 176 233 337 400 346 331 333 336 287 306 391 291 285 295 231 162 82 0 95 238 145 87 54 58 89 153
0 0 54 64 75 86 130 183 208 266 283 295 316 350 369 310 334 454 401 347 298 339 227 131 159 183 159 0 0 0 0 0 28
0 0 32 50 29 43 31 36 7 32 110 136 190 204 190 189 255 211 195 208 249 212 152 63 53 23 0 0 0 0 0 0 1
0 0 0 0 0 20 33 10 1 0 0 5 66 104 51 137 143 151 155 142 194 156 102 80 49 1 0 0 0 0 0 0 0
0 0 0 2 2 3 3 9 30 21 12 0 0 4 36 70 76 119 116 97 84 61 123 97 39 0 0 0 0 0 0 23 1
0 2 0 0 1 2 0 4 11 90 61 110 84 47 41 102 94 72 60 21 16 19 28 29 5 0 0 0 0 0 0 0 0
0 0 0 2 2 1 2 2 6 54 15 36 2 70 105 85 81 48 40 23 17 2 7 6 0 0 0 0 0 0 0 0 0
0 0 0 0 1 1 1 1 1 1 1 2 0 27 24 33 74 13 3 7 15 0 0 0 0 0 0 0 0 0 0 0 0
0 1 0 0 0 0 0 1 1 0 1 1 2 0 0 1 0 0 1 6 6 1 0 0 0 0 0 0 0 0 0 0 0
0 0 0 0 0 0 0 0 0 0 1 1 0 0 1 1 0 2 2 0 0 0 0 0 0 0 0 0 0 0 0 0 0
0 0 0 0 0 0 0 0 0 0 0 0 0 0 0 0 0 0 0 0 0 0 0 0 0 0 0 0 0 0 0 0 0
0 0 0 0 0 0 0 0 0 0 0 0 0 0 0 0 0 0 0 0 0 0 0 0 0 0 0 0 0 0 0 0 0
0 0 0 0 0 0 0 0 0 0 0 0 0 0 0 0 0 0 0 0 0 0 0 0 0 0 0 0 0 0 0 0 0

GFSFLT1_con_mlcape_120.txt.gz
CAPE
0 2 0 5 0 0 3 0 0 0 0 0 35 110 180 184 183 186 177 152 175 147 173 166 227 332 526 551 596 651 659 642 671
14 15 3 11 0 0 8 0 27 0 0 0 0 85 173 180 182 165 166 117 75 90 79 98 95 134 330 472 476 668 589 600 607
0 2 0 21 28 5 10 35 35 27 0 25 0 33 81 150 190 175 146 130 110 42 17 15 93 85 290 368 444 561 558 650 671
0 20 35 33 33 35 29 59 74 44 35 25 23 37 39 77 105 149 168 168 159 106 0 0 5 16 76 221 230 412 540 648 618
0 13 44 59 63 73 71 74 98 94 60 51 34 31 44 37 44 109 134 123 145 82 0 0 0 0 0 31 138 413 464 401 547
0 2 50 61 77 85 101 129 148 144 122 87 80 71 31 43 80 60 82 116 136 78 57 0 0 0 0 0 87 348 368 354 463
11 6 16 65 98 103 104 125 132 180 181 175 146 133 91 60 100 98 123 143 174 176 131 32 0 0 36 8 24 161 317 340 400
110 63 38 22 34 62 94 134 113 157 193 249 232 191 173 150 163 157 175 215 179 189 123 109 0 0 0 160 118 66 33 93 200
43 99 77 99 40 86 125 173 182 239 306 301 314 233 221 225 184 202 213 255 271 214 236 168 114 122 86 120 0 0 0 0 57
1 2 13 68 85 46 109 79 142 148 132 178 193 232 220 271 215 230 172 177 273 257 289 247 101 18 21 1 0 0 0 0 0
1 1 0 1 1 1 28 47 53 24 26 58 104 124 130 123 133 193 103 103 119 188 157 113 37 12 13 0 0 0 0 0 0
2 1 2 0 2 0 1 0 11 35 24 15 24 49 41 60 20 10 51 93 78 84 117 99 82 1 0 0 0 0 0 0 0
0 0 2 1 1 2 2 1 9 70 98 82 1 16 0 9 13 56 61 47 47 17 36 25 2 0 0 1 0 0 0 0 0
0 0 1 1 1 1 1 1 31 97 46 4 15 0 0 44 107 49 26 9 1 0 1 0 0 0 0 0 0 0 0 0 0
0 0 0 0 0 1 1 1 1 2 4 0 0 0 22 35 40 13 8 0 0 0 0 0 0 0 0 0 0 0 0 0 0
0 0 0 0 0 0 0 0 0 0 2 1 0 0 0 0 0 0 0 0 0 0 1 0 0 0 0 0 0 0 0 0 0
0 0 0 0 0 0 0 0 0 1 2 1 1 1 1 2 2 2 3 2 0 1 3 3 1 0 0 0 0 0 0 0 0
0 0 0 0 0 0 0 0 0 0 0 0 0 1 1 1 1 1 2 2 3 1 1 0 0 0 0 0 0 0 0 0 0
0 0 0 0 0 0 0 0 0 0 0 0 0 0 0 0 0 0 0 0 0 0 0 0 0 0 0 0 0 0 0 0 0
0 0 0 0 0 0 0 0 0 0 0 0 0 0 0 0 0 0 0 0 0 0 0 0 0 0 0 0 0 0 0 0 0

GFSFLT1_con_mlcape_123.txt.gz
CAPE
76 11 0 0 0 59 92 76 103 79 46 25 47 78 232 398 489 509 533 624 581 584 633 729 829 808 712 758 828 1317 1420 1336 1271
33 45 9 1 24 66 81 97 115 104 67 53 64 136 209 248 387 461 426 484 478 459 455 483 486 545 705 988 1104 748 1134 983 1079
49 48 19 27 25 56 73 100 128 125 111 50 28 120 221 276 383 439 491 485 431 376 372 267 274 389 502 778 1051 1184 1166 1126 1258
109 63 74 50 24 56 100 93 90 113 152 142 58 71 154 288 346 346 372 385 439 486 392 203 48 224 380 533 783 969 856 747 959
53 93 103 74 41 77 98 93 94 80 147 189 129 181 161 117 209 280 294 307 335 437 407 259 254 112 89 115 443 740 690 626 802
67 34 29 56 52 57 94 128 99 146 201 196 202 219 211 192 206 231 206 271 302 264 293 188 118 0 0 7 29 267 719 878 603
146 98 17 64 60 108 143 155 133 200 243 124 246 248 188 200 182 212 231 226 233 251 271 244 147 44 0 10 193 233 492 799 567
147 202 163 152 171 192 176 159 161 185 277 159 156 219 180 148 328 275 265 327 276 276 339 324 306 144 67 100 480 316 315 467 445
52 30 35 209 203 181 178 228 281 280 169 163 287 182 227 284 355 263 414 425 438 490 461 561 433 291 219 223 246 0 0 0 157
1 2 24 40 37 119 227 165 81 328 421 349 259 381 367 323 349 298 213 178 315 197 467 470 381 451 432 225 70 0 0 0 0
0 0 1 1 1 1 6 17 74 147 220 288 259 305 240 194 278 230 217 176 78 107 203 173 330 387 133 14 0 0 0 0 0
1 0 0 1 2 2 2 0 0 30 127 169 149 133 80 89 74 57 58 40 79 98 159 101 74 67 99 67 8 0 0 0 0
1 1 1 2 2 3 2 1 1 47 83 126 128 166 42 8 3 26 21 11 40 21 112 99 44 6 4 0 0 1 0 0 0
0 1 0 1 1 1 2 2 50 73 56 33 28 75 48 13 48 63 57 38 17 24 22 0 0 0 0 0 0 0 0 1 0
1 0 0 0 0 0 1 2 1 1 0 0 0 6 3 8 31 22 20 5 0 0 0 0 0 0 0 0 0 0 0 0 0
0 1 0 0 0 0 0 4 4 0 3 2 2 1 0 0 0 1 1 0 0 0 1 0 0 0 0 0 0 0 0 0 0
0 0 0 0 0 0 0 0 2 4 4 2 2 1 0 1 0 0 1 0 0 1 3 4 4 0 0 0 0 0 0 0 0
0 0 0 0 0 0 0 0 0 0 0 0 0 2 1 1 1 1 1 1 1 0 1 0 1 2 0 0 0 0 0 0 0
0 0 0 0 0 0 0 0 0 0 0 0 0 0 0 0 0 0 0 0 0 0 2 0 0 0 0 0 0 0 0 0 0
0 0 0 0 0 0 0 0 0 0 0 0 0 0 0 0 0 0 0 0 0 0 0 0 0 0 0 0 0 0 0 0 0